Wind_Speed
30 32 34 37 38 39 40 39 37 35 36 36 37 38 40 41 41 41 41 42 42 42 42 42 42 42 43 43 43 43 43 44 45 46 45 43 40 39 39 38 36 36 38
31 33 35 35 33 33 36 39 38 37 36 36 36 36 37 39 40 40 40 40 40 39 40 40 40 40 40 41 42 42 42 42 43 44 43 41 40 39 41 42 41 39 38
33 34 35 32 32 33 34 35 36 37 37 38 36 35 34 34 34 35 36 36 35 35 36 37 38 39 40 41 42 43 43 42 43 43 43 42 41 39 38 39 39 37 34
32 35 34 33 33 34 35 34 34 35 36 37 38 39 38 36 35 35 35 36 37 36 36 37 39 41 42 43 43 43 44 45 45 46 45 44 42 40 36 35 35 33 30
30 30 31 32 33 34 35 37 39 39 39 40 41 42 43 42 40 39 39 39 39 40 40 41 42 43 43 43 42 43 44 45 46 47 47 46 42 39 37 35 33 30 29
29 29 30 30 31 31 33 35 37 40 41 43 43 44 44 44 43 43 42 41 41 41 41 42 42 43 43 43 43 44 45 46 47 48 48 45 42 39 36 33 30 28 29
28 29 29 27 26 27 28 31 33 36 39 42 44 45 45 45 45 44 44 43 42 41 41 42 42 43 44 45 45 45 45 46 47 47 46 44 41 37 34 31 29 28 28
27 28 29 28 28 29 30 31 32 34 36 38 40 42 43 44 45 45 46 45 44 42 42 42 43 43 45 46 47 46 45 45 46 45 43 41 37 33 30 30 30 31 32
27 30 32 33 33 34 35 36 35 35 36 37 38 39 40 42 42 43 45 46 46 45 44 44 43 44 45 45 43 41 39 41 41 40 38 35 31 26 25 26 28 31 35
28 30 32 33 34 36 37 37 37 37 36 36 37 37 37 38 39 40 41 42 43 44 44 44 44 44 42 39 35 33 32 32 32 31 29 27 24 22 24 27 30 34 36
30 32 33 33 33 35 37 38 39 39 38 38 37 35 34 34 35 36 38 39 40 41 40 40 40 38 36 31 26 23 21 22 22 22 22 21 22 26 29 30 32 32 31
36 37 37 37 36 36 38 40 40 40 40 38 38 37 34 32 32 32 32 33 34 34 35 34 32 31 28 23 19 17 17 17 20 21 23 26 28 29 29 28 26 23 20
41 42 43 43 42 41 40 42 41 41 40 40 39 39 36 32 30 29 28 28 27 28 28 27 26 25 22 20 18 18 18 16 16 17 18 19 20 22 21 20 18 16 14
45 47 46 46 47 46 44 44 44 43 41 40 39 39 38 33 29 27 26 25 23 22 21 22 21 19 19 19 20 21 20 18 17 16 15 14 14 15 15 16 15 14 16
49 50 50 50 49 49 49 47 46 44 41 39 38 38 38 34 29 26 25 23 20 19 19 19 18 16 16 18 20 21 21 20 19 17 15 14 13 13 14 15 15 16 18
51 52 53 53 52 51 50 50 49 46 42 40 38 36 37 34 29 26 24 22 20 17 17 16 15 14 12 14 16 16 16 16 16 16 15 14 13 12 13 14 15 15 17
55 56 56 56 55 53 53 52 50 47 43 40 38 36 35 33 29 27 25 23 20 18 16 15 14 13 12 10 12 13 14 15 16 16 15 15 14 14 14 14 14 15 15
61 61 60 60 59 59 58 56 52 47 43 40 38 35 33 32 28 27 26 24 21 18 16 15 15 15 13 11 11 13 14 15 16 16 16 15 14 14 14 14 13 13 13
66 65 64 64 64 65 65 62 56 49 44 40 38 36 33 30 28 26 25 23 21 19 17 16 15 15 14 13 12 12 13 13 14 14 13 11 11 11 12 12 11 11 10
72 70 70 70 71 71 70 66 59 53 48 43 39 37 34 31 29 28 25 23 22 20 17 16 15 16 16 14 11 10 11 11 11 11 10 9 9 9 9 9 9 7 6
77 78 79 80 80 76 71 66 60 55 52 48 43 41 37 32 30 28 25 23 21 20 18 17 16 17 17 16 14 13 12 11 10 9 10 10 9 9 8 8 7 7 7
83 83 81 78 74 70 67 63 59 55 54 51 45 40 37 33 30 28 26 24 22 20 18 16 15 14 14 15 16 17 15 12 10 10 11 11 10 10 8 7 7 7 6
77 70 64 58 56 57 56 56 57 56 55 54 51 45 38 34 32 30 28 26 23 20 18 15 14 12 11 13 15 17 16 14 12 11 12 12 11 10 9 8 8 7 6
55 47 45 46 47 48 47 45 45 51 56 56 54 48 42 37 35 33 31 27 24 21 18 16 14 13 13 13 14 15 16 15 13 13 13 13 11 10 9 8 8 7 6
41 43 46 47 48 46 42 41 40 42 50 56 56 51 44 39 37 36 33 30 26 23 21 19 17 15 14 14 14 15 15 15 15 14 12 12 11 10 9 8 8 7 6
44 46 47 48 48 47 45 44 42 41 43 52 56 52 46 41 39 37 34 32 28 25 24 23 20 18 16 15 14 14 14 15 15 14 13 13 12 11 9 9 9 8 7
Wind_Direction
302 304 304 303 301 299 296 292 288 286 284 283 281 281 280 280 280 279 278 277 277 276 275 274 273 273 274 275 277 278 278 278 279 280 282 284 289 290 283 278 279 281 280
301 302 302 301 302 301 298 295 294 293 291 289 286 283 280 279 278 277 277 277 278 277 276 275 275 275 276 277 278 278 278 279 280 281 282 285 288 289 286 283 282 280 277
297 300 302 298 299 301 298 293 293 295 296 295 292 288 285 282 280 280 281 282 281 280 278 277 279 280 281 280 279 279 279 279 279 281 282 283 284 286 284 282 280 277 272
302 301 298 292 293 297 297 295 292 293 295 295 293 291 288 285 283 282 283 284 285 284 282 281 282 284 285 284 282 280 279 279 278 279 281 283 284 282 280 279 277 270 262
299 299 296 291 291 293 294 296 298 298 297 295 293 291 289 287 286 285 284 285 285 284 282 282 283 285 285 285 283 282 281 280 279 278 279 280 280 279 279 277 273 264 253
299 303 304 302 300 299 297 296 296 296 295 293 290 288 287 286 285 284 284 283 282 282 283 283 284 284 284 285 285 284 282 280 277 277 277 276 276 275 273 271 269 261 251
307 306 305 308 310 310 310 309 307 305 301 296 292 289 287 286 284 283 283 284 284 284 285 286 287 287 286 285 285 284 281 277 274 273 273 275 275 273 270 266 266 260 252
306 310 315 324 327 327 327 326 324 319 312 307 302 295 290 288 286 284 284 284 286 286 287 287 289 289 287 286 286 283 279 273 269 268 268 271 272 269 263 261 262 257 251
319 323 325 328 329 329 331 333 334 331 325 319 314 307 299 293 290 289 288 287 287 287 287 287 288 288 288 288 287 283 275 268 264 262 264 266 264 258 253 255 255 251 248
321 320 321 323 323 322 323 326 329 331 330 326 322 316 308 300 295 293 293 292 290 289 289 288 288 289 288 287 283 277 271 266 260 257 256 253 247 240 243 250 251 249 250
315 316 317 318 317 315 314 316 321 324 325 326 327 323 314 304 298 295 294 293 292 290 288 287 288 288 287 284 276 270 265 255 246 242 237 232 229 232 238 243 245 249 253
312 312 311 311 311 310 310 311 314 316 317 320 324 325 319 309 302 298 296 296 295 293 291 290 289 287 282 274 262 252 242 232 224 216 213 215 217 221 227 233 239 243 249
305 304 305 306 307 308 307 307 308 310 312 315 319 322 320 312 305 300 301 301 300 298 297 297 293 285 270 258 242 229 218 209 200 197 203 208 216 224 231 234 234 236 242
299 300 302 304 304 305 304 303 304 306 308 310 313 318 319 312 304 300 301 303 302 299 302 305 300 284 264 249 234 222 212 210 204 208 215 228 240 247 246 240 236 238 244
300 300 300 300 299 299 299 300 302 303 304 305 308 313 316 311 302 298 299 303 305 301 303 311 308 290 264 245 232 225 223 224 225 227 231 239 245 249 248 243 240 242 248
298 298 298 298 296 295 297 299 302 301 300 301 303 306 309 308 299 295 297 303 307 304 304 308 309 297 272 245 235 233 233 232 230 226 228 233 235 239 242 244 246 249 253
295 295 297 297 295 295 297 299 300 299 296 296 297 298 301 303 294 290 294 300 302 301 303 300 296 293 279 259 243 238 237 234 235 235 233 232 233 235 239 244 247 250 253
294 293 293 293 291 291 293 295 295 292 289 289 290 289 291 293 288 284 288 294 294 294 298 298 291 283 280 269 257 247 242 240 240 238 235 234 235 237 241 242 243 246 250
293 291 289 289 288 287 288 289 288 284 280 281 282 281 281 282 278 275 279 285 286 287 292 295 292 283 277 269 259 249 246 247 240 234 231 232 232 232 232 233 237 244 254
294 292 290 289 289 288 288 286 282 276 271 270 271 272 271 270 267 265 269 273 277 279 282 286 286 279 272 265 257 250 247 241 235 230 225 221 219 222 227 229 229 234 250
293 291 289 289 290 290 287 283 276 269 264 261 262 261 258 257 257 257 258 261 265 268 270 274 275 273 266 255 244 239 238 235 231 223 217 216 221 220 213 210 218 237 262
292 292 291 290 290 288 283 277 270 263 257 253 251 249 246 245 247 249 249 252 254 256 259 263 267 267 258 244 234 229 227 222 213 208 211 218 214 203 204 219 240 259 288
297 296 294 294 293 292 288 280 268 257 251 245 242 240 236 237 240 242 240 243 245 247 248 248 249 243 235 225 221 219 217 215 211 207 207 205 202 209 224 238 245 262 291
295 295 296 298 298 297 296 293 279 259 246 240 236 235 232 229 233 235 233 235 238 238 234 228 224 219 218 214 212 211 210 213 216 210 201 202 212 227 234 233 241 255 276
287 290 293 293 294 296 297 296 290 270 247 237 232 229 225 223 226 228 227 227 230 228 223 215 210 207 208 212 213 211 212 215 216 212 210 217 225 231 231 233 242 256 285
287 289 291 291 290 290 289 291 290 279 255 238 231 224 217 216 219 223 221 220 222 221 218 212 208 210 212 218 220 216 212 213 213 214 218 223 228 232 235 236 243 262 287
Height
5883 5880 5876 5871 5866 5862 5859 5858 5857 5857 5855 5853 5850 5848 5845 5843 5841 5839 5837 5835 5833 5831 5829 5829 5829 5828 5826 5824 5823 5822 5821 5821 5820 5819 5819 5820 5819 5818 5818 5818 5818 5817 5816
5875 5872 5870 5866 5862 5857 5853 5850 5847 5845 5844 5842 5840 5838 5836 5833 5831 5828 5827 5825 5823 5821 5819 5818 5818 5817 5816 5815 5814 5812 5811 5810 5809 5808 5807 5808 5810 5810 5809 5808 5807 5806 5805
5869 5866 5863 5859 5856 5852 5849 5846 5842 5839 5836 5833 5831 5828 5826 5824 5822 5820 5818 5816 5814 5812 5811 5809 5808 5807 5806 5805 5804 5803 5801 5800 5799 5798 5798 5797 5798 5800 5800 5798 5797 5796 5795
5862 5860 5857 5854 5850 5847 5843 5840 5837 5834 5830 5826 5823 5820 5818 5816 5813 5811 5809 5807 5805 5803 5801 5800 5798 5797 5795 5793 5792 5791 5790 5790 5789 5788 5788 5788 5787 5788 5789 5790 5788 5787 5786
5857 5854 5851 5847 5844 5841 5837 5832 5828 5825 5822 5818 5815 5812 5808 5806 5804 5802 5800 5798 5796 5794 5792 5790 5789 5787 5785 5783 5781 5780 5778 5778 5777 5777 5777 5776 5777 5777 5778 5779 5779 5777 5778
5851 5847 5844 5840 5836 5832 5828 5824 5820 5816 5812 5808 5805 5802 5799 5796 5794 5792 5790 5789 5787 5784 5782 5780 5778 5776 5774 5772 5771 5769 5767 5766 5765 5765 5765 5765 5766 5767 5768 5769 5769 5769 5770
5843 5840 5836 5833 5829 5825 5820 5817 5813 5808 5803 5798 5794 5791 5788 5785 5782 5781 5779 5777 5776 5773 5771 5768 5766 5764 5763 5761 5759 5757 5755 5753 5752 5752 5752 5753 5754 5756 5758 5759 5760 5760 5762
5836 5831 5827 5823 5820 5816 5812 5809 5805 5800 5795 5790 5784 5780 5776 5772 5770 5768 5766 5765 5763 5762 5759 5756 5754 5752 5750 5748 5746 5743 5741 5740 5739 5740 5741 5742 5744 5746 5748 5750 5751 5753 5755
5827 5822 5818 5815 5812 5808 5805 5801 5797 5792 5787 5781 5776 5770 5765 5761 5758 5755 5753 5752 5750 5749 5746 5744 5742 5740 5737 5735 5732 5730 5728 5727 5728 5729 5732 5734 5735 5737 5739 5741 5743 5746 5748
5820 5817 5814 5811 5807 5803 5800 5796 5791 5786 5780 5774 5768 5762 5757 5752 5748 5745 5743 5740 5738 5736 5734 5732 5730 5728 5725 5723 5721 5719 5717 5717 5718 5720 5723 5725 5727 5729 5731 5733 5736 5738 5740
5815 5812 5808 5806 5803 5798 5794 5789 5784 5779 5773 5767 5761 5755 5749 5744 5740 5737 5734 5730 5727 5725 5722 5720 5718 5716 5714 5712 5711 5710 5709 5709 5710 5712 5715 5717 5720 5723 5725 5727 5729 5730 5731
5808 5805 5802 5799 5795 5791 5786 5781 5776 5772 5766 5760 5754 5748 5742 5737 5733 5729 5726 5722 5718 5715 5712 5709 5707 5706 5705 5704 5704 5703 5704 5704 5706 5707 5709 5711 5714 5715 5717 5719 5721 5723 5725
5801 5797 5793 5789 5785 5781 5776 5771 5767 5763 5758 5752 5746 5741 5735 5730 5726 5723 5719 5716 5712 5708 5704 5702 5700 5698 5697 5698 5698 5699 5699 5700 5701 5703 5705 5707 5709 5710 5712 5714 5716 5718 5720
5792 5787 5783 5778 5773 5769 5766 5762 5758 5754 5749 5744 5739 5734 5728 5723 5719 5716 5713 5710 5706 5703 5700 5697 5694 5693 5692 5693 5694 5694 5694 5695 5696 5698 5700 5702 5704 5706 5708 5710 5712 5714 5716
5780 5775 5771 5766 5762 5758 5754 5751 5748 5744 5741 5736 5732 5727 5722 5716 5712 5709 5707 5704 5701 5698 5696 5693 5690 5688 5687 5688 5688 5689 5690 5691 5692 5694 5696 5697 5700 5702 5705 5707 5709 5711 5712
5768 5764 5759 5755 5750 5746 5742 5739 5736 5733 5730 5727 5723 5720 5715 5710 5705 5703 5700 5697 5695 5693 5691 5689 5686 5684 5683 5683 5684 5684 5685 5686 5688 5690 5692 5694 5696 5698 5701 5704 5706 5707 5709
5755 5750 5746 5741 5736 5732 5729 5726 5724 5721 5719 5716 5713 5710 5707 5703 5699 5696 5694 5692 5689 5688 5686 5684 5683 5682 5681 5680 5680 5681 5682 5684 5685 5687 5689 5690 5693 5695 5698 5700 5702 5703 5704
5739 5734 5729 5725 5721 5717 5714 5713 5711 5709 5707 5704 5702 5700 5697 5695 5692 5689 5687 5686 5684 5682 5680 5679 5679 5679 5678 5677 5677 5678 5679 5681 5683 5684 5686 5688 5690 5692 5694 5696 5698 5699 5700
5720 5715 5710 5706 5703 5700 5698 5697 5696 5695 5694 5692 5690 5689 5687 5685 5683 5681 5681 5680 5678 5676 5675 5674 5674 5674 5674 5674 5674 5675 5676 5678 5680 5681 5683 5685 5687 5689 5691 5692 5694 5695 5695
5701 5694 5689 5684 5681 5679 5677 5677 5677 5677 5677 5677 5677 5677 5677 5675 5674 5673 5673 5673 5671 5670 5669 5669 5669 5670 5671 5671 5671 5671 5673 5675 5677 5679 5680 5682 5684 5686 5687 5689 5690 5691 5691
5679 5672 5665 5660 5656 5653 5651 5651 5653 5655 5658 5659 5661 5663 5663 5663 5663 5663 5665 5665 5664 5664 5664 5664 5664 5665 5666 5667 5668 5669 5670 5672 5674 5676 5678 5680 5682 5683 5684 5685 5687 5687 5688
5655 5646 5638 5633 5629 5625 5625 5625 5626 5629 5634 5639 5643 5646 5648 5650 5651 5653 5656 5658 5657 5657 5658 5658 5659 5660 5662 5663 5664 5665 5667 5670 5672 5673 5675 5677 5679 5680 5681 5682 5683 5684 5684
5630 5621 5614 5609 5605 5600 5597 5598 5600 5603 5609 5616 5622 5628 5632 5636 5639 5642 5646 5649 5650 5651 5651 5652 5654 5656 5659 5661 5661 5662 5664 5666 5669 5671 5672 5674 5676 5677 5678 5679 5679 5680 5680
5609 5602 5596 5591 5587 5581 5577 5575 5574 5577 5584 5592 5600 5608 5615 5621 5626 5631 5636 5641 5643 5644 5646 5647 5649 5652 5656 5659 5660 5660 5662 5663 5666 5668 5669 5671 5673 5674 5675 5675 5676 5676 5677
5593 5588 5582 5577 5572 5567 5563 5559 5557 5556 5559 5568 5577 5588 5598 5606 5613 5619 5625 5631 5635 5637 5639 5641 5644 5648 5653 5657 5658 5659 5660 5661 5663 5664 5666 5668 5670 5671 5671 5672 5673 5673 5673
5577 5572 5567 5561 5556 5552 5549 5546 5543 5541 5542 5548 5557 5568 5581 5591 5600 5607 5614 5621 5626 5629 5633 5636 5639 5643 5648 5652 5655 5656 5657 5658 5660 5661 5663 5664 5666 5667 5667 5669 5669 5669 5670